Regional Weather Roundup
Issued by NWS Northern Indiana

Home | Current Version | Previous Version | Graphics & Text | Print | Product List | Glossary On
Versions: 1 2 3 4 5 6 7 8 9 10 11 12 13 14 15 16 17 18 19 20 21 22 23 24 25 26 27 28 29 30 31 32 33 34 35 36 37 38 39 40 41 42 43 44 45 46 47 48 49 50
000
ASUS43 KIWX 050400
RWRIWX

KIWX WEATHER ROUNDUP
NATIONAL WEATHER SERVICE NORTHERN INDIANA
1200 AM EDT SUN JUL 05 2015

NOTE: "FAIR" INDICATES FEW OR NO CLOUDS BELOW 12,000 FEET WITH NO
SIGNIFICANT WEATHER AND/OR OBSTRUCTIONS TO VISIBILITY.

* THESE STATIONS ARE NOT UNDER NWS QUALITY CONTROL. THEY ALSO MAY NOT
  REPORT WEATHER SUCH AS PRECIPITATION OR FOG.

INZ001>027-050500-
NORTHERN INDIANA

CITY           SKY/WX    TMP DP  RH WIND       PRES   REMARKS
SOUTH BEND     CLEAR     64  59  83 CALM      30.06R
GOSHEN         CLEAR     63  59  87 CALM      30.06R FOG
MONTICELLO*    FAIR      66  64  96 CALM      30.04S FOG
ANGOLA*          N/A     63  61  94 CALM      30.06R
FORT WAYNE     CLEAR     66  61  84 CALM      30.06R
PERU/GRISSOM   CLEAR     65  61  87 CALM      30.05R

$$
INZ028>050-050500-
CENTRAL INDIANA

CITY           SKY/WX    TMP DP  RH WIND       PRES   REMARKS
LAFAYETTE      CLEAR     64  61  90 CALM      30.04R FOG
KOKOMO*        CLEAR     64  61  88 CALM      30.05R
MUNCIE*        PTCLDY    67  59  75 CALM      30.06S
INDIANAPOLIS   MOCLDY    71  58  63 NE7       30.03R HAZE

$$
MIZ043>046-050>051-056>058-064>065-071>073-077>080-050500-
SOUTHWEST LOWER MICHIGAN

CITY           SKY/WX    TMP DP  RH WIND       PRES   REMARKS
BATTLE CREEK   CLEAR     67  59  75 S3        30.07R
BENTON HARBOR  CLEAR     59  56  89 CALM      30.04S FOG
COLDWATER*     CLEAR     62  58  89 CALM      30.07R
HILLSDALE*     CLEAR     61  61  99 CALM      30.08R
HOLLAND        CLEAR     62  58  86 CALM      30.05R
GRAND RAPIDS   PTCLDY    65  59  81 CALM      30.05R
KALAMAZOO      CLEAR     64  58  80 CALM      30.06R
STURGIS*       CLEAR     63  61  94 CALM      30.06S
THREE RIVERS*    N/A     64  60  88 CALM      30.07R FOG

$$
OHZ001>008-015>018-024>025-050500-
NORTHWEST OHIO

CITY           SKY/WX    TMP DP  RH WIND       PRES   REMARKS
DEFIANCE       CLEAR     65  60  84 MISG      30.06R
FINDLAY        CLEAR     66  57  72 E6        30.06R
TOLEDO EXPRESS CLEAR     61  56  83 CALM      30.06R
TOLEDO METCALF CLEAR     66  54  65 CALM      30.07R
LIMA           CLEAR     63  59  87 CALM      30.06R

$$
AND FOR LAKE MICHIGAN COASTAL AND OPEN LAKE BUOY OBSERVATIONS

STATION/POSITION TEMP    WIND        PRES    VSBY  WAVE
                 AIR SEA DIR/SP/G                  HT/PER
                 (F)     (DEG/KT/KT) (MB)    (MI)  (FT/S)
CALUMET HARBOR    70     110/  3/  4   N/A
MICHIGAN CITY     71     110/  5/  6   N/A
BURNS HARBOR      74     170/  4/  7 1017.3R
SAINT JOSEPH      66      CALM  /  2   N/A
4 MI NW BRIDGMAN  66 65                N/A           0
MICHIGAN CITY     67 65  140/  4/  4   N/A           0

$$
&&



USA.gov is the U.S. government's official web portal to all federal, state and local government web resources and services.